Dewpoint
48 44 40 41 43 41 42 41 38 37 38 37 37 39 39 40 39 38 36 34 34 34 35 41 48 51 54 57 57 58 58 59 60 60 59 58 58 58 57 57 57 56 56 56
43 40 39 41 44 43 42 41 39 38 39 39 39 38 39 40 39 38 36 36 35 34 33 36 46 50 52 55 57 57 58 59 60 60 60 59 58 58 58 57 57 56 56 55
37 36 40 40 39 38 41 38 38 37 38 39 38 37 37 38 38 37 38 37 37 36 33 32 36 46 52 53 55 56 57 58 59 60 60 60 59 58 58 57 57 57 57 56
38 38 36 37 38 39 36 38 37 37 38 34 39 33 36 35 34 36 36 37 37 37 37 35 32 36 46 53 55 57 57 57 59 60 60 59 58 57 57 57 57 57 57 57
33 35 36 36 36 36 33 36 36 37 37 37 35 35 31 34 32 32 33 36 37 36 36 35 34 33 42 50 55 56 58 58 58 59 60 59 58 58 58 57 57 57 58 58
35 35 34 35 37 37 39 39 39 38 37 32 32 34 32 34 33 32 32 33 34 35 35 35 36 36 36 46 52 56 57 58 58 58 59 59 59 58 58 58 58 57 58 58
31 32 32 34 34 35 37 36 30 29 29 28 26 32 32 33 34 31 32 32 34 35 34 35 36 37 37 41 51 55 57 57 58 58 59 59 59 59 58 58 58 58 58 58
26 24 29 32 34 33 35 34 29 23 24 25 30 31 32 35 35 35 34 34 35 35 34 35 36 38 39 41 47 53 56 57 57 58 58 59 59 59 59 59 59 58 59 59
24 23 25 29 34 34 32 34 34 30 27 30 29 33 34 35 32 32 32 33 34 35 36 35 37 41 43 44 45 48 54 56 57 57 58 58 59 59 59 59 59 59 59 59
21 20 23 21 30 33 32 38 34 34 25 22 27 27 25 28 28 27 30 31 33 35 35 35 36 38 41 44 45 46 47 55 56 57 57 58 59 59 59 59 59 59 59 59
27 26 23 29 23 24 26 27 30 30 32 27 25 24 25 24 25 28 30 31 32 34 35 36 37 39 41 43 44 45 46 48 53 56 57 57 59 59 59 59 59 59 59 59
28 29 25 25 26 27 25 25 25 24 20 23 25 23 23 23 24 26 29 31 33 34 31 29 30 34 35 38 42 44 44 47 50 54 56 56 58 59 59 58 58 59 59 59
29 29 23 23 25 27 31 30 31 31 28 26 25 25 27 28 29 29 30 30 32 31 28 28 30 31 33 35 39 42 43 43 48 52 53 55 56 57 58 58 58 58 58 59
33 27 24 18 19 24 25 29 30 30 28 28 31 29 28 30 29 29 33 33 34 31 28 29 30 30 32 34 35 37 40 43 46 51 53 54 55 56 57 57 58 58 58 58
32 26 27 25 24 22 20 25 32 30 29 27 25 25 25 29 33 34 34 32 31 32 35 34 33 35 34 34 35 35 35 39 45 49 52 53 55 55 56 56 57 58 58 58
35 28 30 25 28 28 27 27 26 26 31 33 32 31 30 29 30 30 29 29 29 30 33 34 36 36 36 35 34 34 33 35 41 47 50 52 53 53 54 54 54 55 56 57
33 29 28 23 25 25 23 22 21 20 20 21 22 24 24 22 24 27 28 27 29 32 33 35 35 36 36 36 36 35 35 34 37 43 47 47 49 48 49 49 48 49 52 53
30 32 31 22 20 10 20 20 20 19 21 21 20 22 24 25 26 27 30 29 30 30 31 32 34 35 36 37 39 38 37 35 37 39 43 43 44 45 44 45 47 46 47 50
32 30 18 14 12 16 15 11 6 5 6 20 24 25 26 26 28 29 26 27 28 29 30 32 32 33 35 39 38 39 37 36 36 36 38 40 43 43 42 43 45 46 44 44
25 26 20 11 5 1 9 15 15 16 12 25 24 24 23 24 26 28 24 25 26 28 29 30 30 32 33 35 38 39 36 35 35 35 36 38 41 43 43 45 44 41 44 44
15 16 16 13 9 15 22 27 24 13 14 22 21 20 19 19 21 21 22 22 24 26 27 27 29 30 31 32 34 37 37 35 35 34 34 35 39 42 43 44 42 39 41 38
19 15 12 12 8 11 25 28 21 17 18 17 17 17 16 16 17 18 18 19 22 23 24 26 27 28 29 31 32 34 36 36 34 33 33 34 36 38 40 39 37 38 38 38
15 22 21 21 20 23 20 17 13 11 10 12 13 12 11 12 12 13 15 17 20 20 22 23 25 25 26 29 30 31 32 34 34 33 33 33 34 35 37 37 36 37 37 39
21 22 23 22 22 15 16 12 9 7 9 9 9 9 9 9 11 12 14 16 16 17 18 21 22 22 23 25 27 29 30 31 33 34 33 33 34 35 35 36 36 38 37 38
20 21 18 20 17 17 14 10 6 6 6 6 6 6 7 8 9 12 13 13 13 15 17 18 18 19 21 23 25 27 27 29 30 32 32 33 34 34 34 35 36 37 38 39
11 12 17 16 6 5 7 4 4 2 3 4 4 5 6 7 8 9 9 10 12 14 13 13 12 14 17 18 20 22 22 24 30 30 32 33 33 33 34 34 33 37 38 38
Lifted_Index
0 1 1 1 1 0 1 1 2 2 2 2 3 3 3 3 4 4 5 6 7 7 6 5 3 2 2 2 2 2 2 2 2 3 3 4 4 4 4 5 5 5 6 6
1 1 1 1 0 0 0 1 2 2 2 2 3 3 3 3 4 4 5 6 6 7 7 5 3 2 2 2 2 2 2 1 1 2 3 3 4 4 4 5 5 5 5 6
1 1 1 0 0 0 1 1 1 2 2 2 2 3 3 3 4 4 4 5 5 6 6 6 4 3 2 1 1 1 1 1 1 1 2 2 3 3 4 4 4 4 5 6
1 1 1 0 0 1 1 1 1 2 2 2 2 2 3 3 3 3 3 3 4 4 5 5 5 4 2 1 1 1 1 1 1 1 1 2 3 3 3 3 4 4 5 5
1 1 1 1 1 1 1 1 1 1 1 2 2 2 3 3 3 3 3 3 3 3 4 4 5 5 3 1 1 0 1 1 1 1 1 2 2 3 3 3 3 3 4 4
1 1 1 1 1 1 1 1 1 1 1 1 2 3 3 3 3 3 3 3 3 3 3 4 4 5 4 3 1 0 0 0 1 1 1 1 1 2 2 3 3 3 3 3
1 1 1 1 1 1 1 0 0 0 1 1 2 3 3 3 3 3 4 3 3 3 3 3 4 4 4 4 2 1 0 0 0 0 1 1 1 1 1 2 2 2 2 2
2 2 2 1 1 0 0 0 0 0 0 1 1 2 3 3 3 3 4 4 4 3 3 3 4 4 4 4 3 2 1 0 0 0 0 0 1 1 1 1 2 2 2 2
2 2 2 1 1 0 0 -0 -0 0 0 0 0 1 2 3 3 3 3 4 4 4 4 4 4 4 5 4 4 3 1 0 -0 -0 -0 0 0 0 1 1 1 1 1 1
2 2 2 1 1 0 0 -0 -0 -0 0 0 0 1 2 3 3 3 3 3 3 3 3 4 4 4 5 5 5 4 3 1 0 -0 -0 -0 -0 0 0 1 1 1 1 1
1 1 1 1 1 1 1 0 0 0 0 0 0 1 2 3 3 3 3 3 3 3 3 4 4 4 4 5 5 5 5 4 2 1 0 -0 -0 -0 0 1 0 1 1 1
1 1 1 1 1 1 1 1 1 1 1 1 1 1 3 3 3 3 3 3 3 3 3 4 4 4 5 5 5 6 6 5 5 3 2 1 0 0 0 0 0 1 1 1
1 1 1 1 1 1 1 1 1 0 1 1 1 2 3 3 3 3 2 2 2 2 3 4 4 5 5 5 6 6 6 6 6 5 4 2 2 1 0 0 0 1 1 1
1 1 1 1 1 1 1 1 0 0 0 1 1 2 3 4 3 3 2 2 2 2 3 3 4 4 5 5 6 6 6 7 7 6 5 4 3 2 1 1 1 1 1 1
1 1 1 1 1 1 1 1 0 0 0 1 1 2 4 4 4 3 3 3 3 3 3 3 3 4 4 5 6 6 7 7 7 7 6 5 4 3 2 2 2 1 1 1
1 1 1 1 1 1 1 1 1 1 1 1 1 3 4 4 4 3 3 4 4 4 3 3 3 3 3 4 5 6 6 7 7 7 6 6 5 4 3 3 3 2 2 2
1 1 1 1 1 1 2 2 2 2 2 2 2 3 4 4 3 3 3 4 4 4 4 3 3 3 4 4 5 5 5 6 7 7 7 7 6 5 4 4 3 3 3 2
1 1 1 1 1 2 2 3 2 2 2 2 2 3 3 4 3 3 3 3 3 3 4 3 3 4 4 4 4 4 4 5 6 7 7 7 7 6 5 5 4 4 3 3
1 1 1 1 1 2 3 3 3 3 3 3 2 3 3 4 4 3 3 3 3 3 3 4 4 4 4 4 4 4 4 4 5 6 7 7 6 6 6 6 6 5 4 4
2 2 2 2 2 2 3 4 3 3 3 3 3 3 4 4 4 4 3 3 3 4 4 4 5 5 5 5 4 4 4 4 5 6 6 6 6 5 6 7 7 6 5 4
3 3 3 3 2 3 3 3 2 2 3 3 3 3 3 4 4 5 5 5 5 4 4 4 5 5 5 5 5 5 4 4 4 5 5 5 5 5 5 6 7 7 6 5
3 3 3 3 3 3 3 3 2 2 3 3 3 3 3 4 4 5 6 6 6 5 5 5 5 5 5 5 5 5 5 5 5 5 5 5 5 4 4 5 6 7 6 6
4 3 3 3 3 3 3 3 2 3 3 3 3 4 4 5 5 6 7 7 7 6 6 5 5 5 5 5 5 5 5 6 6 6 5 5 5 4 4 4 5 6 7 6
4 4 4 4 3 3 3 3 3 4 4 5 5 5 6 6 6 7 8 8 8 8 7 7 6 5 5 5 5 5 5 6 6 6 6 6 5 4 4 4 4 6 6 6
5 4 4 4 4 4 4 4 4 5 5 6 6 7 7 7 8 8 9 9 10 10 9 8 7 6 6 5 5 5 5 5 6 6 7 6 5 4 4 4 5 6 6 6
5 5 5 5 5 5 4 5 5 5 6 7 7 7 8 9 9 9 10 11 11 11 11 10 9 8 7 6 5 5 4 5 5 6 7 7 5 4 4 4 5 6 7 7